Flag for Germany Weather past 2 weeks in Fürth, Bavaria, Germany

Now
55 °F

Clear.


Feels Like: 55 °F
Forecast: 50 / 68 °F
Wind: 2 mph from Northeast

Location: Nuernberg

Current Time: May 24, 2015 at 5:13:38 AM

Latest Report: May 24, 2015 at 4:50 AM


Visibility: 10 mi

Pressure: 30.07 "Hg

Humidity: 77%

Dew point: 48 °F

Location of FürthLocation

Historic Weather in Fürth — Graph

°F

Fürth temperature yesterday

Maximum temperature yesterday: 66 °F (at 3:50 PM)
Minimum temperature yesterday: 41 °F (at 4:50 AM)
Average temperature yesterday: 57 °F

Past Weeks' High & Low Weather Summary

 TemperatureHumidityPressure
High82 °F (May 12, 3:20 PM)100% (May 21, 2:20 AM)30.36 "Hg (May 21, 2:20 AM)
Low37 °F (May 22, 4:50 AM)27% (May 18, 6:20 PM)29.71 "Hg (May 18, 7:20 PM)
Average57 °F62%30.08 "Hg
* Reported May 9 3:20 AM — May 24 3:50 AM, Fürth, Weather by CustomWeather, © 2015

Note: Actual official high and low records may vary slightly from our data, if they occured in-between our weather recording intervals... More about our weather records

Advertising

Fürth weather history for previous 24 hours

 ConditionsComfort  
Time TempWeatherWind HumidityBarometerVisibility
3:50 AM
Sun, May 24
55 °FClear.No wind77%30.07 "Hg10 mi
3:20 AM57 °FClear.1 mph67%30.07 "Hg10 mi
2:50 AM57 °FClear.1 mph67%30.07 "Hg10 mi
2:20 AM57 °FClear.2 mph67%30.07 "Hg10 mi
1:50 AM57 °FClear.2 mph67%30.07 "Hg10 mi
1:20 AM57 °FClear.1 mph67%30.07 "Hg10 mi
12:50 AM57 °FClear.2 mph67%30.07 "Hg10 mi
12:20 AM59 °FClear.1 mph63%30.07 "Hg10 mi
11:50 PM
Sat, May 23
59 °FClear.No wind63%30.07 "Hg10 mi
11:20 PM59 °FClear.1 mph59%30.07 "Hg10 mi
10:50 PM59 °FClear.1 mph59%30.07 "Hg10 mi
10:20 PM61 °FClear.2 mph55%30.07 "Hg10 mi
9:50 PM61 °FSunny.2 mph55%30.07 "Hg10 mi
9:20 PM61 °FSunny.2 mph52%30.04 "Hg10 mi
8:50 PM61 °FPassing clouds.3 mph52%30.04 "HgN/A
8:20 PM63 °FPassing clouds.5 mph49%30.04 "HgN/A
7:50 PM64 °FSunny.5 mph46%30.04 "Hg10 mi
7:20 PM64 °FSunny.6 mph43%30.04 "Hg10 mi
6:50 PM64 °FPassing clouds.6 mph43%30.04 "HgN/A
6:20 PM64 °FSunny.6 mph40%30.04 "Hg10 mi
5:50 PM64 °FSunny.6 mph43%30.04 "Hg10 mi
5:20 PM66 °FSunny.8 mph40%30.04 "Hg10 mi
4:50 PM66 °FPassing clouds.8 mph37%30.04 "HgN/A
4:20 PM66 °FPassing clouds.9 mph37%30.04 "HgN/A
3:50 PM66 °FSunny.7 mph35%30.04 "Hg10 mi
3:20 PM64 °FSunny.8 mph40%30.07 "Hg10 mi
2:50 PM64 °FSunny.7 mph37%30.07 "Hg10 mi
2:20 PM64 °FSunny.7 mph40%30.07 "Hg10 mi
1:50 PM64 °FSunny.7 mph40%30.07 "Hg10 mi
1:20 PM64 °FPassing clouds.9 mph40%30.07 "HgN/A
12:50 PM64 °FSunny.6 mph37%30.07 "Hg10 mi
12:20 PM64 °FSunny.6 mph37%30.09 "Hg10 mi
11:50 AM63 °FPassing clouds.7 mph39%30.09 "HgN/A
11:20 AM63 °FSunny.5 mph39%30.09 "Hg10 mi
10:50 AM63 °FPartly sunny.7 mph42%30.09 "HgN/A
10:20 AM59 °FPartly sunny.3 mph51%30.12 "HgN/A
9:50 AM57 °FPassing clouds.3 mph55%30.12 "HgN/A
9:20 AM55 °FSunny.2 mph63%30.12 "Hg10 mi
8:50 AM52 °FSunny.2 mph67%30.12 "Hg10 mi
8:20 AM50 °FSunny.2 mph71%30.12 "Hg10 mi
7:50 AM50 °FSunny.1 mph76%30.12 "Hg10 mi
7:20 AM48 °FSunny.No wind76%30.12 "Hg10 mi
6:50 AM45 °FSunny.1 mph87%30.12 "Hg10 mi
6:20 AM43 °FClear.1 mph87%30.12 "Hg10 mi
5:50 AM41 °FClear.1 mph87%30.12 "Hg10 mi
5:20 AM41 °FClear.1 mph87%30.12 "Hg10 mi
Weather by CustomWeather, © 2015

See weather overviewHow to use our weather pages